Leesburg, FL

2:06 PM EDT on August 30, 2016 (GMT -0400)
Leesburg Regional

Weather History for KLEE - January, 2013

Change the Weather History Date:

Thursday, January 24, 2013

  Actual Average Record
Temperature  
Mean Temperature 59 °F -  
Max Temperature 72 °F 70 °F 83 °F (1962)
Min Temperature 46 °F 45 °F 24 °F (2003)
Degree Days  
Heating Degree Days 6    
Growing Degree Days 9 (Base 50)    
Moisture  
Dew Point 47 °F    
Average Humidity 68    
Maximum Humidity 93    
Minimum Humidity 41    
Precipitation  
Precipitation 0.00 in - - ()
Sea Level Pressure  
Sea Level Pressure 30.30 in    
Wind  
Wind Speed 4 mph (WNW)    
Max Wind Speed 9 mph    
Max Gust Speed -    
Visibility 10 miles    
Events      
Averages and records for this station are not official NWS values.
T = Trace of Precipitation, MM = Missing Value Source: NWS Daily Summary

Daily Weather History Graph

Daily Weather History Graph

Search for Another Location

Airport or City:

Trip Planner

Search our weather history database for the weather conditions in past years. The results will help you decide how hot, cold, wet, or windy it might be!

Date:

Astronomy

Jan. 24, 2013 Rise Set
Actual Time 7:19 AM EST 5:59 PM EST
Civil Twilight 6:54 AM EST 6:25 PM EST
Nautical Twilight 6:25 AM EST 6:53 PM EST
Astronomical Twilight 5:57 AM EST 7:21 PM EST
Moon 4:03 PM EST (1/24) 5:12 AM EST (1/24)
Length of Visible Light 11h 30m
Length of Day
10h 40m
Waxing Gibbous, 94% of the Moon is Illuminated
Jan 24
Waxing Gibbous
Jan 26
Full
Feb 3
Last Quarter
Feb 10
New
Feb 17
First Quarter

Hourly Weather History & Observations

Time (EST) Temp. Dew Point Humidity Pressure Visibility Wind Dir Wind Speed Gust Speed Precip Events Conditions
12:53 AM 46.9 °F 44.1 °F 90% 30.31 in 10.0 mi Calm Calm - N/A   Clear
1:53 AM 48.9 °F 42.1 °F 77% 30.31 in 10.0 mi West 3.5 mph - N/A   Clear
2:53 AM 46.9 °F 39.0 °F 74% 30.30 in 6.0 mi Calm Calm - N/A   Haze
3:53 AM 46.9 °F 42.1 °F 83% 30.31 in 10.0 mi North 4.6 mph - N/A   Clear
4:53 AM 48.0 °F 41.0 °F 77% 30.30 in 10.0 mi NNW 6.9 mph - N/A   Clear
5:53 AM 48.0 °F 41.0 °F 77% 30.30 in 10.0 mi Calm Calm - N/A   Clear
7:53 AM 48.0 °F 42.1 °F 80% 30.32 in 9.0 mi NNW 3.5 mph - N/A   Clear
8:53 AM 55.0 °F 45.0 °F 69% 30.34 in 10.0 mi WNW 4.6 mph - N/A   Clear
9:53 AM 60.1 °F 46.0 °F 60% 30.35 in 10.0 mi West 4.6 mph - N/A   Clear
10:53 AM 64.9 °F 44.1 °F 47% 30.35 in 10.0 mi WNW 5.8 mph - N/A   Clear
11:53 AM 69.1 °F 46.0 °F 44% 30.33 in 10.0 mi NNW 8.1 mph - N/A   Clear
12:53 PM 71.1 °F 46.0 °F 41% 30.29 in - West 6.9 mph - N/A   Clear
1:53 PM 72.0 °F 46.9 °F 41% 30.26 in 10.0 mi WNW 6.9 mph - N/A   Clear
2:53 PM - - N/A% 30.25 in - WNW 9.2 mph - N/A   Clear
3:53 PM - - N/A% 30.25 in 10.0 mi West 5.8 mph - N/A   Clear
4:53 PM 71.1 °F 48.9 °F 45% 30.24 in 10.0 mi West 5.8 mph - N/A   Clear
5:53 PM 68.0 °F 51.1 °F 55% 30.25 in 10.0 mi West 8.1 mph - N/A   Scattered Clouds
6:53 PM 64.9 °F 53.1 °F 65% 30.27 in 10.0 mi West 5.8 mph - N/A   Clear
7:53 PM 63.0 °F 53.1 °F 70% 30.28 in 10.0 mi West 5.8 mph - N/A   Clear
8:53 PM 60.1 °F 53.1 °F 78% 30.29 in 10.0 mi WNW 6.9 mph - N/A   Clear
9:53 PM 59.0 °F 53.1 °F 81% 30.30 in 10.0 mi West 3.5 mph - N/A   Clear
10:53 PM 57.0 °F 53.1 °F 87% 30.30 in 10.0 mi WNW 3.5 mph - N/A   Partly Cloudy
11:53 PM 55.9 °F 54.0 °F 93% 30.31 in 8.0 mi Calm Calm - N/A   Overcast